CW7563 Weather Reports


Display with metric or nautical units.
time (UTC)temp
F
wind
direction
speed
MPH
gust
MPH
rain 1hr
in
rain 24hr
in
rain mn
in
humidity
%
barometer
mb
20260503180306 76 43 2.0 5.0 0.00 0.00 0.00 50 1010.3
20260503175806 76 40 3.0 8.0 0.00 0.00 0.00 51 1010.3
20260503175306 76 76 3.0 10.0 0.00 0.00 0.00 51 1010.3
20260503174806 75 28 3.0 9.0 0.00 0.00 0.00 52 1010.4
20260503174306 74 38 2.0 5.0 0.00 0.00 0.00 52 1010.4
20260503173806 75 46 2.0 7.0 0.00 0.00 0.00 53 1010.4
20260503173306 74 94 2.0 6.0 0.00 0.00 0.00 54 1010.5
20260503172806 74 84 3.0 6.0 0.00 0.00 0.00 53 1010.5
20260503172306 73 83 4.0 8.0 0.00 0.00 0.00 53 1010.5
20260503171806 73 68 3.0 7.0 0.00 0.00 0.00 54 1010.6
20260503171305 73 62 3.0 8.0 0.00 0.00 0.00 54 1010.6
20260503170806 73 47 3.0 10.0 0.00 0.00 0.00 55 1010.8
20260503170306 73 26 3.0 8.0 0.00 0.00 0.00 57 1010.7
20260503150306 60 341 2.0 3.0 0.00 0.00 0.00 86 1011.2
20260503131305 52 183 0.0 0.0 0.00 0.00 0.00 95 1010.8
20260503130806 52 183 0.0 0.0 0.00 0.00 0.00 95 1010.8
20260503130305 52 183 0.0 0.0 0.00 0.00 0.00 95 1010.7
20260503110305 52 171 0.0 0.0 0.00 0.00 0.00 94 1011.0
20260503090305 54 171 0.0 1.0 0.00 0.00 0.00 92 1011.4
20260503081305 55 171 2.0 3.0 0.00 0.00 0.00 91 1011.5
20260503080805 55 171 1.0 2.0 0.00 0.00 0.00 91 1011.5
20260503080306 55 171 0.0 3.0 0.00 0.00 0.00 91 1011.5
20260503072306 56 171 0.0 1.0 0.00 0.00 0.00 90 1011.5
20260503071804 56 171 1.0 2.0 0.00 0.00 0.00 89 1011.6
20260503071305 57 171 1.0 2.0 0.00 0.00 0.00 89 1011.6
20260503070818 57 171 2.0 3.0 0.00 0.00 0.00 89 1011.6
20260503070305 57 171 0.0 2.0 0.00 0.00 0.00 88 1011.6
20260503060304 59 171 1.0 2.0 0.00 0.00 0.00 85 1011.6
20260503054805 60 155 1.0 2.0 0.00 0.00 0.00 84 1011.8
20260503054305 60 155 0.0 3.0 0.00 0.00 0.00 84 1011.6
20260503053805 60 155 2.0 3.0 0.00 0.00 0.00 83 1011.7
20260503053304 61 155 1.0 3.0 0.00 0.00 0.00 82 1011.7
20260503052805 61 158 2.0 3.0 0.00 0.00 0.00 82 1011.6
20260503052306 61 219 2.0 3.0 0.00 0.00 0.00 81 1011.5
20260503051804 62 349 1.0 2.0 0.00 0.00 0.00 80 1011.5
20260503051305 62 349 0.0 2.0 0.00 0.00 0.00 79 1011.5
20260503050805 63 348 1.0 2.0 0.00 0.00 0.00 79 1011.5
20260503050304 63 348 2.0 3.0 0.00 0.00 0.00 79 1011.5
20260503045805 63 5 1.0 3.0 0.00 0.00 0.00 78 1011.6
20260503045305 63 5 2.0 3.0 0.00 0.00 0.00 78 1011.5
20260503044804 63 19 2.0 3.0 0.00 0.00 0.00 78 1011.6
20260503044305 63 40 1.0 3.0 0.00 0.00 0.00 77 1011.8
20260503043804 63 40 2.0 3.0 0.00 0.00 0.00 77 1011.5
20260503043304 63 341 1.0 3.0 0.00 0.00 0.00 77 1011.3
20260503042804 63 340 2.0 3.0 0.00 0.00 0.00 77 1011.3
20260503041805 64 348 2.0 3.0 0.00 0.00 0.00 77 1011.3
20260503041305 63 355 2.0 3.0 0.00 0.00 0.00 77 1011.2
20260503040805 63 348 1.0 3.0 0.00 0.00 0.00 78 1011.2
20260503040304 63 355 2.0 3.0 0.00 0.00 0.00 78 1011.1
20260503035805 63 356 3.0 3.0 0.00 0.00 0.00 78 1011.2
20260503035305 63 73 2.0 3.0 0.00 0.00 0.00 78 1011.3
20260503034806 63 74 1.0 2.0 0.00 0.00 0.00 78 1011.3
20260503033804 63 311 1.0 1.0 0.00 0.00 0.00 78 1011.3
20260503033305 64 311 0.0 1.0 0.00 0.00 0.00 77 1011.2
20260503032308 64 311 1.0 2.0 0.00 0.00 0.00 76 1011.0
20260503031807 64 311 1.0 2.0 0.00 0.00 0.00 75 1011.0
20260503031307 65 311 0.0 1.0 0.00 0.00 0.00 74 1011.0
20260503030807 65 311 1.0 3.0 0.00 0.00 0.00 74 1010.9
20260503030307 65 312 2.0 3.0 0.00 0.00 0.00 74 1010.8
20260503025807 65 0 2.0 3.0 0.00 0.00 0.00 74 1010.9
20260503025307 65 298 1.0 3.0 0.00 0.00 0.00 74 1010.9
20260503024807 65 298 1.0 3.0 0.00 0.00 0.00 73 1011.1
20260503024307 65 228 2.0 3.0 0.00 0.00 0.00 73 1011.2
20260503023307 65 224 1.0 3.0 0.00 0.00 0.00 73 1011.1
20260503022807 65 148 2.0 9.0 0.00 0.00 0.00 73 1011.3
20260503022307 65 172 5.0 12.0 0.00 0.00 0.00 73 1011.5
20260503021307 65 163 6.0 12.0 0.00 0.00 0.00 72 1011.7
20260503020307 66 177 8.0 16.0 0.00 0.00 0.00 72 1011.7
20260503015307 66 176 7.0 12.0 0.00 0.00 0.00 73 1011.7
20260503014807 66 180 4.0 7.0 0.00 0.00 0.00 72 1011.2
20260503014307 67 145 5.0 10.0 0.00 0.00 0.00 72 1011.0
20260503013807 67 185 3.0 9.0 0.00 0.00 0.00 72 1010.9
20260503012808 68 199 3.0 7.0 0.00 0.00 0.00 66 1010.8
20260503012307 68 197 2.0 3.0 0.00 0.00 0.00 66 1010.8
20260503011307 69 210 1.0 2.0 0.00 0.00 0.00 66 1010.7
20260503010307 69 194 1.0 3.0 0.00 0.00 0.00 65 1010.6
20260503005807 68 196 1.0 3.0 0.00 0.00 0.00 66 1010.6
20260503005307 68 196 2.0 3.0 0.00 0.00 0.00 65 1010.6
20260503004307 69 229 1.0 3.0 0.00 0.00 0.00 64 1010.6
20260503003807 69 246 2.0 5.0 0.00 0.00 0.00 66 1010.6
20260503003307 69 236 3.0 3.0 0.00 0.00 0.00 64 1010.6
20260503002807 69 244 2.0 3.0 0.00 0.00 0.00 65 1010.6
20260503002307 69 291 2.0 3.0 0.00 0.00 0.00 66 1010.7
20260503001807 68 294 3.0 6.0 0.00 0.00 0.00 66 1010.7
20260503001307 68 303 3.0 5.0 0.00 0.00 0.00 65 1010.8
20260503000307 69 245 3.0 6.0 0.00 0.00 0.00 64 1010.9
20260502235807 69 236 2.0 3.0 0.00 0.00 0.00 65 1010.8
20260502234807 68 195 2.0 6.0 0.00 0.00 0.00 66 1010.9
20260502234307 68 261 1.0 6.0 0.00 0.00 0.00 65 1010.9
20260502233807 68 260 4.0 6.0 0.00 0.00 0.00 65 1010.9
20260502233308 69 259 2.0 7.0 0.00 0.00 0.00 65 1011.0
20260502232807 68 192 3.0 6.0 0.00 0.00 0.00 66 1011.1
20260502232307 69 240 3.0 8.0 0.00 0.00 0.00 66 1011.2
20260502231807 69 205 2.0 5.0 0.00 0.00 0.00 65 1011.2
20260502231307 68 212 2.0 6.0 0.00 0.00 0.00 66 1011.3
20260502230306 67 215 3.0 7.0 0.00 0.00 0.00 68 1011.6
20260502225807 67 288 2.0 5.0 0.00 0.00 0.00 68 1011.6
20260502225306 66 271 3.0 9.0 0.00 0.00 0.00 68 1011.7
20260502224807 66 283 3.0 5.0 0.00 0.00 0.00 67 1011.8
20260502224307 67 243 3.0 7.0 0.00 0.00 0.00 67 1011.8
20260502223807 67 221 2.0 5.0 0.00 0.00 0.00 67 1011.9
20260502223306 67 314 3.0 7.0 0.00 0.00 0.00 67 1011.9
20260502222807 67 319 3.0 6.0 0.00 0.00 0.00 68 1012.0
20260502222307 66 264 3.0 7.0 0.00 0.00 0.00 66 1012.0
20260502221807 67 244 5.0 7.0 0.00 0.00 0.00 66 1012.0
20260502221306 67 233 2.0 6.0 0.00 0.00 0.00 68 1012.1
20260502220307 67 273 2.0 5.0 0.00 0.00 0.00 67 1012.2
20260502215807 66 1 2.0 5.0 0.00 0.00 0.00 68 1012.3
20260502215307 65 268 2.0 5.0 0.00 0.00 0.00 68 1012.4
20260502214807 65 261 3.0 8.0 0.00 0.00 0.00 68 1012.5
20260502214307 65 268 3.0 7.0 0.00 0.00 0.00 68 1012.6
20260502213306 64 46 1.0 3.0 0.00 0.00 0.00 69 1012.7
20260502212807 63 192 1.0 3.0 0.00 0.00 0.00 71 1012.8
20260502212307 63 356 3.0 7.0 0.00 0.00 0.00 71 1012.9
20260502211807 63 4 4.0 8.0 0.00 0.00 0.00 70 1012.9
20260502211307 64 14 1.0 3.0 0.00 0.00 0.00 70 1013.0
20260502210807 61 214 3.0 7.0 0.00 0.00 0.00 74 1013.0
20260502210307 61 146 5.0 7.0 0.00 0.00 0.00 73 1013.1
20260502205807 61 186 4.0 7.0 0.00 0.00 0.00 73 1013.3
20260502205307 61 202 4.0 6.0 0.00 0.00 0.00 75 1013.3
20260502204806 61 116 3.0 6.0 0.00 0.00 0.00 75 1013.4
20260502204306 61 43 3.0 6.0 0.00 0.00 0.00 74 1013.5
20260502203807 61 339 2.0 6.0 0.00 0.00 0.00 74 1013.6
20260502203306 60 232 2.0 3.0 0.00 0.00 0.00 76 1013.7
20260502202806 59 174 2.0 3.0 0.00 0.00 0.00 76 1013.8
20260502202306 59 356 2.0 3.0 0.00 0.00 0.00 77 1013.9
20260502201807 59 291 5.0 7.0 0.00 0.00 0.00 76 1014.0
20260502201306 58 298 2.0 3.0 0.00 0.00 0.00 78 1014.0
20260502200806 59 254 2.0 3.0 0.00 0.00 0.00 77 1014.1
20260502200307 58 192 2.0 5.0 0.00 0.00 0.00 79 1014.2
20260502195806 58 168 2.0 3.0 0.00 0.00 0.00 78 1014.2
20260502195306 57 215 1.0 3.0 0.00 0.00 0.00 79 1014.3
20260502194807 57 349 2.0 8.0 0.00 0.00 0.00 79 1014.3
20260502194307 56 266 3.0 7.0 0.00 0.00 0.00 80 1014.4
20260502193806 57 272 5.0 9.0 0.00 0.00 0.00 80 1014.3
20260502193306 56 340 4.0 10.0 0.00 0.00 0.00 80 1014.4
20260502192807 56 302 1.0 5.0 0.00 0.00 0.00 81 1014.5
20260502192306 56 295 3.0 7.0 0.00 0.00 0.00 82 1014.3
20260502191807 55 286 6.0 9.0 0.00 0.00 0.00 82 1014.4
20260502190806 55 265 3.0 8.0 0.00 0.00 0.00 83 1014.8
20260502185307 55 228 3.0 7.0 0.00 0.00 0.00 83 1015.1
20260502183806 54 309 4.0 7.0 0.00 0.00 0.00 82 1014.9
20260502183306 54 233 4.0 7.0 0.00 0.00 0.00 83 1014.9
20260502182306 54 279 2.0 7.0 0.00 0.00 0.00 82 1014.8
20260502181806 54 288 2.0 3.0 0.00 0.00 0.00 82 1014.9
20260502181306 54 259 2.0 3.0 0.00 0.00 0.00 82 1014.9
20260502180807 54 285 3.0 6.0 0.00 0.00 0.00 82 1014.9